Current weather by "City, St" or "zip code"  
 

Current Conditions: Washington Regional Airport, MO

Partly Cloudy


43.0 F

Last Updated on Oct 29 2020, 7:35 pm CDT
Humidity: 76%
Wind Speed: NW 10.4 mph
Barometer 30.10 in
Dewpoint: 35.6 F
Visibility: 10.00 mi
Precip: --
Heat Index: NA
Wind Chill: 37 F
Current conditions at:

Washington Regional Airport, MO (KFYG)

Lat: 38.5876 Lon: 90.9938

Local Radar Image active severe weather and emergency alerts image image weather storm and storm spotter reports image weather observation monitoring service image
Local
Radar
Active
Alerts
Storm Reports Obs
Monitoring

Sign-up For Email & Text Message Weather Alert Notification Services



Advertise Here

Observation History for Washington Regional Airport, MO


Time Wind
(mph)
Vis
(mi)
Weather Precip (in) Temperature (F) Relative
Humidity
Wind
Chill
(F)
Heat
Index
(F)
Pressure
Air Dwpt altimeter
(in)
sea level
(mb)
Rmks
7:35 pm CDT NW 10.4 10.00 Partly Cloudy -- 43.0 35.6 76% 37 NA 30.10 M
6:35 pm CDT NW 8.1 10.00 Mostly Cloudy -- 43.0 35.6 76% 38 NA 30.07 M
5:35 pm CDT NW 15.0 G 23.0 10.00 Mostly Cloudy -- 43.0 35.6 76% 36 NA 30.04 M
4:35 pm CDT N 13.8 G 27.6 10.00 Overcast -- 45.0 35.6 71% 39 NA 30.00 M
3:35 pm CDT N 15.0 G 23.0 10.00 Overcast -- 46.0 37.4 71% 40 NA 29.95 M
2:35 pm CDT NW 23.0 G 28.8 10.00 Mostly Cloudy and Breezy -- 48.0 39.2 71% 40 NA 29.90 M
1:35 pm CDT N 10.4 10.00 A Few Clouds -- 48.0 41.0 76% 43 NA 29.88 M
12:35 pm CDT NW 11.5 10.00 Fair -- 45.0 41.0 87% 39 NA 29.89 M
11:35 am CDT NW 6.9 5.00 Light Rain -- 41.0 41.0 100% 36 NA 29.89 M
10:15 am CDT NW 5.8 2.00 Rain -- 41.0 39.2 93% 37 NA 29.87 M
9:35 am CDT N 9.2 4.00 Light Rain -- 43.0 37.4 81% 38 NA 29.87 M
8:35 am CDT N 5.8 10.00 Light Rain -- 45.0 37.4 76% 42 NA 29.83 M
7:35 am CDT NW 6.9 10.00 Partly Cloudy -- 45.0 37.4 76% 41 NA 29.79 M
6:35 am CDT N 9.2 10.00 Mostly Cloudy -- 45.0 39.2 81% 40 NA 29.77 M
5:35 am CDT N 10.4 10.00 Light Rain -- 45.0 41.0 87% 40 NA 29.75 M
4:35 am CDT N 4.6 10.00 Overcast -- 46.0 44.6 93% 44 NA 29.76 M
3:35 am CDT N 4.6 9.00 Light Rain -- 46.0 44.6 93% 44 NA 29.75 M
2:35 am CDT N 0.0 10.00 Overcast -- 46.0 46.4 100% NA NA 29.76 M
12:55 am CDT N 6.9 5.00 Light Rain -- 46.0 46.4 100% 42 NA 29.78 M
12:35 am CDT NE 3.5 6.00 Light Rain -- 46.0 46.4 100% NA NA 29.80 M
11:35 pm CDT N 3.5 2.50 Light Rain -- 46.0 46.4 100% NA NA 29.83 M
10:35 pm CDT N 0.0 7.00 Light Rain -- 46.0 46.4 100% NA NA 29.84 M
9:35 pm CDT N 3.5 3.00 Light Rain -- 46.0 46.4 100% NA NA 29.88 M
8:35 pm CDT N 0.0 5.00 Light Rain -- 46.0 46.4 100% NA NA 29.90 M

Regional Weather Observation


St. Louis, Spirit Of St. Louis Airport, MO (KSUS)

Overcast
44.0 F

St. Charles, St. Charles County Smartt Airport, MO (KSET)

Overcast
45.0 F

St. Louis Lambert International Airport, MO (KSTL)

Overcast
44.0 F

Rolla / Vichy, Rolla National Airport, MO (KVIH)

Overcast
40.0 F

St. Louis Downtown Airport, IL (KCPS)

Overcast
45.0 F

St. Louis Regional Airport, IL (KALN)

Overcast
43.0 F